"Sample Date","Sample Time","Sample Value","Units","Flow Rate","Sample Interval","Number Channels","Micron Size 0","Counts/Channel 0","Micron Size 1","Counts/Channel 1","Micron Size 2","Counts/Channel 2","Micron Size 3","Counts/Channel 3","Micron Size 4","Counts/Channel 4","Micron Size 5","Counts/Channel 5","Micron Size 6","Counts/Channel 6","Micron Size 7","Counts/Channel 7","Micron Size 8","Counts/Channel 8","Micron Size 9","Counts/Channel 9","Micron Size 10","Counts/Channel 10","Micron Size 11","Counts/Channel 11","Micron Size 12","Counts/Channel 12","Micron Size 13","Counts/Channel 13","Micron Size 14","Counts/Channel 14","Micron Size 15","Counts/Channel 15","Micron Size 16","Counts/Channel 16","Micron Size 17","Counts/Channel 17","Micron Size 18","Counts/Channel 18","Micron Size 19","Counts/Channel 19","Micron Size 20","Counts/Channel 20","Micron Size 21","Counts/Channel 21","Micron Size 22","Counts/Channel 22","Micron Size 23","Counts/Channel 23","Micron Size 24","Counts/Channel 24","Micron Size 25","Counts/Channel 25","Micron Size 26","Counts/Channel 26","Micron Size 27","Counts/Channel 27","Micron Size 28","Counts/Channel 28","Micron Size 29","Counts/Channel 29","Micron Size 30","Counts/Channel 30","Micron Size 31","Counts/Channel 31"
"03/08/08","08:00:03",69214.000,"cc",28347.010,6.00,6,0.100,61954.000,0.200,6578.000,0.300,403.000,0.500,237.000,1.000,42.000,5.000,0
"03/08/08","08:00:09",61931.000,"cc",28308.104,6.00,6,0.100,55459.000,0.200,5848.000,0.300,358.000,0.500,231.000,1.000,35.000,5.000,0
"03/08/08","08:00:15",73910.000,"cc",28274.184,6.00,6,0.100,66061.000,0.200,7177.000,0.300,408.000,0.500,224.000,1.000,40.000,5.000,0
"03/08/08","08:00:21",66838.000,"cc",28314.750,6.00,6,0.100,59752.000,0.200,6375.000,0.300,426.000,0.500,228.000,1.000,57.000,5.000,0
"03/08/08","08:00:27",62084.000,"cc",28369.381,6.00,6,0.100,55440.000,0.200,5982.000,0.300,401.000,0.500,217.000,1.000,44.000,5.000,0
"03/08/08","08:00:33",51185.000,"cc",28324.869,6.00,6,0.100,45554.000,0.200,4995.000,0.300,353.000,0.500,239.000,1.000,44.000,5.000,0
"03/08/08","08:00:39",64995.000,"cc",28284.072,6.00,6,0.100,58222.000,0.200,6095.000,0.300,402.000,0.500,235.000,1.000,41.000,5.000,0
"03/08/08","08:00:45",74703.000,"cc",28360.279,6.00,6,0.100,66932.000,0.200,7094.000,0.300,418.000,0.500,215.000,1.000,44.000,5.000,0
"03/08/08","08:00:51",126478.000,"cc",28339.656,6.00,6,0.100,112557.000,0.200,12996.000,0.300,597.000,0.500,280.000,1.000,48.000,5.000,0
"03/08/08","08:00:57",85200.000,"cc",28245.082,6.00,6,0.100,76185.000,0.200,8252.000,0.300,505.000,0.500,215.000,1.000,43.000,5.000,0
"03/08/08","08:01:03",93991.000,"cc",28272.557,6.00,6,0.100,83949.000,0.200,9168.000,0.300,562.000,0.500,267.000,1.000,45.000,5.000,0
"03/08/08","08:01:09",79992.000,"cc",28366.707,6.00,6,0.100,71542.000,0.200,7710.000,0.300,442.000,0.500,244.000,1.000,54.000,5.000,0
"03/08/08","08:01:15",81978.000,"cc",28373.106,6.00,6,0.100,73306.000,0.200,7905.000,0.300,477.000,0.500,247.000,1.000,43.000,5.000,0
"03/08/08","08:01:21",46900.000,"cc",28277.906,6.00,6,0.100,42012.000,0.200,4242.000,0.300,355.000,0.500,241.000,1.000,50.000,5.000,0
"03/08/08","08:01:27",43905.000,"cc",28298.688,6.00,6,0.100,39112.000,0.200,4099.000,0.300,390.000,0.500,253.000,1.000,51.000,5.000,0
"03/08/08","08:01:33",36675.000,"cc",28289.672,6.00,6,0.100,32389.000,0.200,3523.000,0.300,386.000,0.500,298.000,1.000,79.000,5.000,0
"03/08/08","08:01:39",33107.000,"cc",28294.869,6.00,6,0.100,29356.000,0.200,3052.000,0.300,362.000,0.500,287.000,1.000,50.000,5.000,0
"03/08/08","08:01:45",48347.000,"cc",28341.938,6.00,6,0.100,43129.000,0.200,4469.000,0.300,417.000,0.500,273.000,1.000,59.000,5.000,0
"03/08/08","08:01:51",29021.000,"cc",28335.654,6.00,6,0.100,25686.000,0.200,2669.000,0.300,335.000,0.500,274.000,1.000,57.000,5.000,0
"03/08/08","08:01:57",27772.000,"cc",28289.391,6.00,6,0.100,24438.000,0.200,2653.000,0.300,365.000,0.500,253.000,1.000,63.000,5.000,0
"03/08/08","08:02:03",32103.000,"cc",28281.131,6.00,6,0.100,28363.000,0.200,3099.000,0.300,351.000,0.500,230.000,1.000,60.000,5.000,0
"03/08/08","08:02:09",26655.000,"cc",28359.330,6.00,6,0.100,23427.000,0.200,2555.000,0.300,350.000,0.500,260.000,1.000,63.000,5.000,0
"03/08/08","08:02:15",25426.000,"cc",28363.533,6.00,6,0.100,22266.000,0.200,2526.000,0.300,331.000,0.500,255.000,1.000,48.000,5.000,0
"03/08/08","08:02:21",40729.000,"cc",28331.492,6.00,6,0.100,35993.000,0.200,4005.000,0.300,414.000,0.500,258.000,1.000,59.000,5.000,0
"03/08/08","08:02:27",55114.000,"cc",28261.092,6.00,6,0.100,49126.000,0.200,5231.000,0.300,453.000,0.500,257.000,1.000,47.000,5.000,0
"03/08/08","08:02:33",49035.000,"cc",28311.840,6.00,6,0.100,43735.000,0.200,4580.000,0.300,388.000,0.500,269.000,1.000,63.000,5.000,0
"03/08/08","08:02:39",25508.000,"cc",28317.793,6.00,6,0.100,22542.000,0.200,2375.000,0.300,287.000,0.500,256.000,1.000,48.000,5.000,0
"03/08/08","08:02:45",26334.000,"cc",28281.156,6.00,6,0.100,23329.000,0.200,2404.000,0.300,291.000,0.500,258.000,1.000,52.000,5.000,0
"03/08/08","08:02:51",14842.000,"cc",28389.287,6.00,6,0.100,12796.000,0.200,1486.000,0.300,268.000,0.500,242.000,1.000,50.000,5.000,0
"03/08/08","08:02:57",15495.000,"cc",28279.117,6.00,6,0.100,13290.000,0.200,1588.000,0.300,298.000,0.500,269.000,1.000,50.000,5.000,0
"03/08/08","08:03:03",19383.000,"cc",28317.691,6.00,6,0.100,16759.000,0.200,1897.000,0.300,357.000,0.500,315.000,1.000,55.000,5.000,0
"03/08/08","08:03:09",19792.000,"cc",28308.404,6.00,6,0.100,17230.000,0.200,1853.000,0.300,341.000,0.500,300.000,1.000,68.000,5.000,0
"03/08/08","08:03:15",20276.000,"cc",28348.301,6.00,6,0.100,17642.000,0.200,1943.000,0.300,318.000,0.500,289.000,1.000,84.000,5.000,0
"03/08/08","08:03:21",21979.000,"cc",28361.850,6.00,6,0.100,19244.000,0.200,2125.000,0.300,302.000,0.500,259.000,1.000,49.000,5.000,0
"03/08/08","08:03:27",31588.000,"cc",28291.035,6.00,6,0.100,27550.000,0.200,3109.000,0.300,490.000,0.500,349.000,1.000,90.000,5.000,0
"03/08/08","08:03:33",32190.000,"cc",28301.531,6.00,6,0.100,28329.000,0.200,3147.000,0.300,375.000,0.500,282.000,1.000,57.000,5.000,0
"03/08/08","08:03:39",47341.000,"cc",28376.490,6.00,6,0.100,42250.000,0.200,4408.000,0.300,362.000,0.500,266.000,1.000,55.000,5.000,0
"03/08/08","08:03:45",42466.000,"cc",28254.063,6.00,6,0.100,37722.000,0.200,4050.000,0.300,356.000,0.500,279.000,1.000,59.000,5.000,0
"03/08/08","08:03:51",32867.000,"cc",28377.643,6.00,6,0.100,29272.000,0.200,2934.000,0.300,350.000,0.500,248.000,1.000,63.000,5.000,0
"03/08/08","08:03:57",42013.000,"cc",28289.363,6.00,6,0.100,37450.000,0.200,3934.000,0.300,335.000,0.500,226.000,1.000,68.000,5.000,0
"03/08/08","08:04:03",24599.000,"cc",28296.451,6.00,6,0.100,21575.000,0.200,2384.000,0.300,331.000,0.500,240.000,1.000,69.000,5.000,0
"03/08/08","08:04:09",28889.000,"cc",28313.174,6.00,6,0.100,25597.000,0.200,2681.000,0.300,326.000,0.500,242.000,1.000,43.000,5.000,0
"03/08/08","08:04:15",38352.000,"cc",28235.008,6.00,6,0.100,34039.000,0.200,3541.000,0.300,424.000,0.500,288.000,1.000,60.000,5.000,0
"03/08/08","08:04:21",41539.000,"cc",28435.820,6.00,6,0.100,36974.000,0.200,3871.000,0.300,369.000,0.500,267.000,1.000,58.000,5.000,0
"03/08/08","08:04:27",45183.000,"cc",28234.193,6.00,6,0.100,40409.000,0.200,4085.000,0.300,362.000,0.500,261.000,1.000,66.000,5.000,0
"03/08/08","08:04:33",57670.000,"cc",28362.412,6.00,6,0.100,51793.000,0.200,5164.000,0.300,371.000,0.500,288.000,1.000,54.000,5.000,0
"03/08/08","08:04:39",33386.000,"cc",28313.639,6.00,6,0.100,29660.000,0.200,3115.000,0.300,334.000,0.500,222.000,1.000,55.000,5.000,0
"03/08/08","08:04:45",58240.000,"cc",28330.688,6.00,6,0.100,51915.000,0.200,5585.000,0.300,411.000,0.500,258.000,1.000,71.000,5.000,0
"03/08/08","08:04:51",95481.000,"cc",28310.574,6.00,6,0.100,84822.000,0.200,9812.000,0.300,527.000,0.500,263.000,1.000,57.000,5.000,0
"03/08/08","08:04:57",144991.000,"cc",28273.231,6.00,6,0.100,128903.000,0.200,15102.000,0.300,655.000,0.500,273.000,1.000,58.000,5.000,0
"03/08/08","08:05:03",121416.000,"cc",28335.932,6.00,6,0.100,108438.000,0.200,12123.000,0.300,558.000,0.500,238.000,1.000,59.000,5.000,0
"03/08/08","08:05:09",78759.000,"cc",28302.842,6.00,6,0.100,70532.000,0.200,7476.000,0.300,435.000,0.500,253.000,1.000,63.000,5.000,0
"03/08/08","08:05:15",68927.000,"cc",28350.494,6.00,6,0.100,61791.000,0.200,6410.000,0.300,439.000,0.500,221.000,1.000,66.000,5.000,0
"03/08/08","08:05:21",52037.000,"cc",28376.129,6.00,6,0.100,46405.000,0.200,4950.000,0.300,362.000,0.500,263.000,1.000,57.000,5.000,0
"03/08/08","08:05:27",45213.000,"cc",28285.459,6.00,6,0.100,40340.000,0.200,4232.000,0.300,327.000,0.500,250.000,1.000,64.000,5.000,0
"03/08/08","08:05:33",40863.000,"cc",28324.082,6.00,6,0.100,36408.000,0.200,3836.000,0.300,333.000,0.500,230.000,1.000,56.000,5.000,0
"03/08/08","08:05:39",31581.000,"cc",28317.498,6.00,6,0.100,28015.000,0.200,2911.000,0.300,319.000,0.500,268.000,1.000,68.000,5.000,0
"03/08/08","08:05:45",29656.000,"cc",28236.932,6.00,6,0.100,26294.000,0.200,2701.000,0.300,338.000,0.500,249.000,1.000,74.000,5.000,0
"03/08/08","08:05:51",29899.000,"cc",28348.383,6.00,6,0.100,26440.000,0.200,2788.000,0.300,326.000,0.500,291.000,1.000,54.000,5.000,0
"03/08/08","08:05:57",21930.000,"cc",28354.002,6.00,6,0.100,19213.000,0.200,2116.000,0.300,277.000,0.500,263.000,1.000,61.000,5.000,0
"03/08/08","08:06:03",18168.000,"cc",28301.621,6.00,6,0.100,15895.000,0.200,1711.000,0.300,274.000,0.500,232.000,1.000,56.000,5.000,0
"03/08/08","08:06:09",29156.000,"cc",28320.941,6.00,6,0.100,25785.000,0.200,2750.000,0.300,316.000,0.500,248.000,1.000,57.000,5.000,0
"03/08/08","08:06:15",49720.000,"cc",28270.107,6.00,6,0.100,44430.000,0.200,4625.000,0.300,349.000,0.500,260.000,1.000,56.000,5.000,0
"03/08/08","08:06:21",81383.000,"cc",28349.695,6.00,6,0.100,72901.000,0.200,7693.000,0.300,466.000,0.500,260.000,1.000,63.000,5.000,0
"03/08/08","08:06:27",66240.000,"cc",28333.725,6.00,6,0.100,59295.000,0.200,6229.000,0.300,372.000,0.500,281.000,1.000,63.000,5.000,0
"03/08/08","08:06:33",72436.000,"cc",28361.647,6.00,6,0.100,64881.000,0.200,6833.000,0.300,408.000,0.500,252.000,1.000,62.000,5.000,0
"03/08/08","08:06:39",28704.000,"cc",28302.881,6.00,6,0.100,25431.000,0.200,2688.000,0.300,279.000,0.500,250.000,1.000,56.000,5.000,0
"03/08/08","08:06:45",16885.000,"cc",28311.635,6.00,6,0.100,14628.000,0.200,1596.000,0.300,300.000,0.500,308.000,1.000,53.000,5.000,0
"03/08/08","08:06:51",18343.000,"cc",28317.680,6.00,6,0.100,16020.000,0.200,1698.000,0.300,289.000,0.500,264.000,1.000,72.000,5.000,0
"03/08/08","08:06:57",16450.000,"cc",28264.828,6.00,6,0.100,14182.000,0.200,1595.000,0.300,316.000,0.500,301.000,1.000,56.000,5.000,0
"03/08/08","08:07:03",20221.000,"cc",28314.365,6.00,6,0.100,17658.000,0.200,1906.000,0.300,323.000,0.500,266.000,1.000,68.000,5.000,0
"03/08/08","08:07:09",30336.000,"cc",28342.592,6.00,6,0.100,26901.000,0.200,2765.000,0.300,330.000,0.500,271.000,1.000,69.000,5.000,0
"03/08/08","08:07:15",20084.000,"cc",28294.731,6.00,6,0.100,17598.000,0.200,1891.000,0.300,286.000,0.500,245.000,1.000,64.000,5.000,0
"03/08/08","08:07:21",21948.000,"cc",28288.350,6.00,6,0.100,19342.000,0.200,1964.000,0.300,303.000,0.500,273.000,1.000,66.000,5.000,0
"03/08/08","08:07:27",43883.000,"cc",28345.678,6.00,6,0.100,38984.000,0.200,4170.000,0.300,361.000,0.500,287.000,1.000,81.000,5.000,0
"03/08/08","08:07:33",18437.000,"cc",28338.690,6.00,6,0.100,16047.000,0.200,1753.000,0.300,311.000,0.500,278.000,1.000,48.000,5.000,0
"03/08/08","08:07:39",15864.000,"cc",28351.748,6.00,6,0.100,13618.000,0.200,1557.000,0.300,329.000,0.500,291.000,1.000,69.000,5.000,0
"03/08/08","08:07:45",51536.000,"cc",28263.756,6.00,6,0.100,46059.000,0.200,4720.000,0.300,387.000,0.500,292.000,1.000,78.000,5.000,0
"03/08/08","08:07:51",69955.000,"cc",28331.670,6.00,6,0.100,62509.000,0.200,6644.000,0.300,454.000,0.500,287.000,1.000,61.000,5.000,0
"03/08/08","08:07:57",21970.000,"cc",28293.383,6.00,6,0.100,19255.000,0.200,2073.000,0.300,327.000,0.500,255.000,1.000,60.000,5.000,0
"03/08/08","08:08:03",12260.000,"cc",28344.779,6.00,6,0.100,10483.000,0.200,1153.000,0.300,289.000,0.500,273.000,1.000,62.000,5.000,0
"03/08/08","08:08:09",17386.000,"cc",28307.584,6.00,6,0.100,15010.000,0.200,1709.000,0.300,307.000,0.500,304.000,1.000,56.000,5.000,0
"03/08/08","08:08:15",32795.000,"cc",28360.537,6.00,6,0.100,29096.000,0.200,3018.000,0.300,345.000,0.500,279.000,1.000,57.000,5.000,0
"03/08/08","08:08:21",58732.000,"cc",28243.311,6.00,6,0.100,52635.000,0.200,5354.000,0.300,413.000,0.500,273.000,1.000,57.000,5.000,0
"03/08/08","08:08:27",50482.000,"cc",28341.973,6.00,6,0.100,45052.000,0.200,4713.000,0.300,380.000,0.500,275.000,1.000,62.000,5.000,0
"03/08/08","08:08:33",38571.000,"cc",28338.719,6.00,6,0.100,34314.000,0.200,3598.000,0.300,357.000,0.500,255.000,1.000,47.000,5.000,0
"03/08/08","08:08:39",31314.000,"cc",28320.932,6.00,6,0.100,27677.000,0.200,2913.000,0.300,364.000,0.500,278.000,1.000,82.000,5.000,0
"03/08/08","08:08:45",25724.000,"cc",28315.684,6.00,6,0.100,22647.000,0.200,2402.000,0.300,350.000,0.500,250.000,1.000,75.000,5.000,0
"03/08/08","08:08:51",11118.000,"cc",28230.311,6.00,6,0.100,9298.000,0.200,1168.000,0.300,302.000,0.500,292.000,1.000,58.000,5.000,0
"03/08/08","08:08:57",9448.000,"cc",28276.100,6.00,6,0.100,7796.000,0.200,990.000,0.300,322.000,0.500,284.000,1.000,56.000,5.000,0
"03/08/08","08:09:03",4423.000,"cc",28417.539,6.00,6,0.100,3079.000,0.200,608.000,0.300,349.000,0.500,313.000,1.000,74.000,5.000,0
"03/08/08","08:09:09",4095.000,"cc",28309.668,6.00,6,0.100,2843.000,0.200,544.000,0.300,325.000,0.500,320.000,1.000,63.000,5.000,0
"03/08/08","08:09:15",3894.000,"cc",28277.197,6.00,6,0.100,2691.000,0.200,544.000,0.300,288.000,0.500,300.000,1.000,71.000,5.000,0
"03/08/08","08:09:21",4090.000,"cc",28360.332,6.00,6,0.100,2912.000,0.200,545.000,0.300,268.000,0.500,297.000,1.000,68.000,5.000,0
"03/08/08","08:09:27",4502.000,"cc",28366.338,6.00,6,0.100,3277.000,0.200,576.000,0.300,289.000,0.500,297.000,1.000,63.000,5.000,0
"03/08/08","08:09:33",4045.000,"cc",28277.195,6.00,6,0.100,2738.000,0.200,558.000,0.300,345.000,0.500,327.000,1.000,77.000,5.000,0
"03/08/08","08:09:39",4776.000,"cc",28252.418,6.00,6,0.100,3369.000,0.200,660.000,0.300,350.000,0.500,309.000,1.000,88.000,5.000,0
"03/08/08","08:09:45",4372.000,"cc",28338.363,6.00,6,0.100,2930.000,0.200,613.000,0.300,387.000,0.500,374.000,1.000,68.000,5.000,0
"03/08/08","08:09:51",4024.000,"cc",28337.754,6.00,6,0.100,2753.000,0.200,538.000,0.300,325.000,0.500,333.000,1.000,75.000,5.000,0
"03/08/08","08:09:57",4052.000,"cc",28269.121,6.00,6,0.100,2767.000,0.200,563.000,0.300,317.000,0.500,326.000,1.000,79.000,5.000,0
"03/08/08","08:10:03",3831.000,"cc",28360.279,6.00,6,0.100,2571.000,0.200,534.000,0.300,324.000,0.500,334.000,1.000,68.000,5.000,0
"03/08/08","08:10:09",4180.000,"cc",28298.240,6.00,6,0.100,2960.000,0.200,515.000,0.300,326.000,0.500,305.000,1.000,74.000,5.000,0
"03/08/08","08:10:15",4333.000,"cc",28330.619,6.00,6,0.100,3097.000,0.200,578.000,0.300,309.000,0.500,281.000,1.000,68.000,5.000,0
"03/08/08","08:10:21",4517.000,"cc",28294.236,6.00,6,0.100,3179.000,0.200,651.000,0.300,320.000,0.500,288.000,1.000,79.000,5.000,0
"03/08/08","08:10:27",3963.000,"cc",28329.031,6.00,6,0.100,2641.000,0.200,548.000,0.300,343.000,0.500,340.000,1.000,91.000,5.000,0
"03/08/08","08:10:33",3876.000,"cc",28281.451,6.00,6,0.100,2664.000,0.200,526.000,0.300,265.000,0.500,344.000,1.000,77.000,5.000,0
"03/08/08","08:10:39",3976.000,"cc",28344.402,6.00,6,0.100,2647.000,0.200,542.000,0.300,340.000,0.500,356.000,1.000,91.000,5.000,0
"03/08/08","08:10:45",3884.000,"cc",28310.346,6.00,6,0.100,2665.000,0.200,515.000,0.300,316.000,0.500,315.000,1.000,73.000,5.000,0
"03/08/08","08:10:51",4069.000,"cc",28363.873,6.00,6,0.100,2767.000,0.200,562.000,0.300,318.000,0.500,339.000,1.000,83.000,5.000,0
"03/08/08","08:10:57",3837.000,"cc",28370.525,6.00,6,0.100,2509.000,0.200,590.000,0.300,323.000,0.500,332.000,1.000,83.000,5.000,0
"03/08/08","08:11:03",3928.000,"cc",28270.039,6.00,6,0.100,2720.000,0.200,496.000,0.300,300.000,0.500,338.000,1.000,74.000,5.000,0
"03/08/08","08:11:09",3944.000,"cc",28330.232,6.00,6,0.100,2664.000,0.200,536.000,0.300,323.000,0.500,343.000,1.000,78.000,5.000,0
"03/08/08","08:11:15",3926.000,"cc",28313.063,6.00,6,0.100,2582.000,0.200,547.000,0.300,344.000,0.500,356.000,1.000,97.000,5.000,0
"03/08/08","08:11:21",4012.000,"cc",28401.602,6.00,6,0.100,2592.000,0.200,589.000,0.300,365.000,0.500,386.000,1.000,80.000,5.000,0
"03/08/08","08:11:27",3876.000,"cc",28266.273,6.00,6,0.100,2520.000,0.200,557.000,0.300,343.000,0.500,370.000,1.000,86.000,5.000,0
"03/08/08","08:11:33",3937.000,"cc",28291.238,6.00,6,0.100,2590.000,0.200,576.000,0.300,365.000,0.500,322.000,1.000,84.000,5.000,0
"03/08/08","08:11:39",4106.000,"cc",28297.918,6.00,6,0.100,2732.000,0.200,621.000,0.300,329.000,0.500,352.000,1.000,72.000,5.000,0
"03/08/08","08:11:45",3887.000,"cc",28269.639,6.00,6,0.100,2618.000,0.200,577.000,0.300,313.000,0.500,313.000,1.000,66.000,5.000,0
"03/08/08","08:11:51",4218.000,"cc",28279.131,6.00,6,0.100,2745.000,0.200,645.000,0.300,378.000,0.500,364.000,1.000,86.000,5.000,0
"03/08/08","08:11:57",3869.000,"cc",28378.594,6.00,6,0.100,2544.000,0.200,568.000,0.300,337.000,0.500,339.000,1.000,81.000,5.000,0
"03/08/08","08:12:03",3807.000,"cc",28336.029,6.00,6,0.100,2514.000,0.200,553.000,0.300,332.000,0.500,312.000,1.000,96.000,5.000,0
"03/08/08","08:12:09",3970.000,"cc",28325.898,6.00,6,0.100,2573.000,0.200,589.000,0.300,371.000,0.500,352.000,1.000,85.000,5.000,0
"03/08/08","08:12:15",3835.000,"cc",28359.613,6.00,6,0.100,2506.000,0.200,562.000,0.300,333.000,0.500,332.000,1.000,102.000,5.000,0
"03/08/08","08:12:21",3848.000,"cc",28307.732,6.00,6,0.100,2556.000,0.200,542.000,0.300,294.000,0.500,360.000,1.000,96.000,5.000,0
"03/08/08","08:12:27",4012.000,"cc",28265.758,6.00,6,0.100,2679.000,0.200,572.000,0.300,350.000,0.500,341.000,1.000,70.000,5.000,0
"03/08/08","08:12:33",3781.000,"cc",28296.803,6.00,6,0.100,2563.000,0.200,536.000,0.300,286.000,0.500,307.000,1.000,89.000,5.000,0
"03/08/08","08:12:39",3924.000,"cc",28347.582,6.00,6,0.100,2557.000,0.200,560.000,0.300,338.000,0.500,381.000,1.000,88.000,5.000,0
"03/08/08","08:12:45",3766.000,"cc",28377.223,6.00,6,0.100,2479.000,0.200,517.000,0.300,320.000,0.500,354.000,1.000,96.000,5.000,0
"03/08/08","08:12:51",3803.000,"cc",28293.891,6.00,6,0.100,2447.000,0.200,545.000,0.300,360.000,0.500,364.000,1.000,87.000,5.000,0
"03/08/08","08:12:57",3886.000,"cc",28341.043,6.00,6,0.100,2501.000,0.200,578.000,0.300,351.000,0.500,366.000,1.000,90.000,5.000,0
"03/08/08","08:13:03",3954.000,"cc",28274.576,6.00,6,0.100,2606.000,0.200,574.000,0.300,346.000,0.500,344.000,1.000,84.000,5.000,0
"03/08/08","08:13:09",3853.000,"cc",28341.354,6.00,6,0.100,2499.000,0.200,585.000,0.300,336.000,0.500,340.000,1.000,93.000,5.000,0
"03/08/08","08:13:15",3711.000,"cc",28283.652,6.00,6,0.100,2429.000,0.200,553.000,0.300,328.000,0.500,315.000,1.000,86.000,5.000,0
"03/08/08","08:13:21",4021.000,"cc",28319.707,6.00,6,0.100,2543.000,0.200,580.000,0.300,407.000,0.500,388.000,1.000,103.000,5.000,0
"03/08/08","08:13:27",4075.000,"cc",28289.481,6.00,6,0.100,2693.000,0.200,574.000,0.300,341.000,0.500,370.000,1.000,97.000,5.000,0
"03/08/08","08:13:33",3897.000,"cc",28277.617,6.00,6,0.100,2480.000,0.200,597.000,0.300,350.000,0.500,374.000,1.000,96.000,5.000,0
"03/08/08","08:13:39",3970.000,"cc",28389.449,6.00,6,0.100,2548.000,0.200,612.000,0.300,362.000,0.500,361.000,1.000,87.000,5.000,0
"03/08/08","08:13:45",3899.000,"cc",28343.875,6.00,6,0.100,2596.000,0.200,557.000,0.300,339.000,0.500,340.000,1.000,67.000,5.000,0
"03/08/08","08:13:51",3941.000,"cc",28329.402,6.00,6,0.100,2616.000,0.200,543.000,0.300,362.000,0.500,336.000,1.000,84.000,5.000,0
"03/08/08","08:13:57",3831.000,"cc",28297.693,6.00,6,0.100,2431.000,0.200,605.000,0.300,347.000,0.500,357.000,1.000,91.000,5.000,0
"03/08/08","08:14:03",3893.000,"cc",28248.854,6.00,6,0.100,2454.000,0.200,607.000,0.300,394.000,0.500,353.000,1.000,85.000,5.000,0
"03/08/08","08:14:09",4117.000,"cc",28385.574,6.00,6,0.100,2647.000,0.200,612.000,0.300,341.000,0.500,417.000,1.000,100.000,5.000,0
"03/08/08","08:14:15",4009.000,"cc",28344.539,6.00,6,0.100,2607.000,0.200,596.000,0.300,360.000,0.500,350.000,1.000,96.000,5.000,0
"03/08/08","08:14:21",3989.000,"cc",28311.815,6.00,6,0.100,2641.000,0.200,547.000,0.300,337.000,0.500,381.000,1.000,83.000,5.000,0
"03/08/08","08:14:27",3983.000,"cc",28313.285,6.00,6,0.100,2531.000,0.200,596.000,0.300,376.000,0.500,379.000,1.000,101.000,5.000,0
"03/08/08","08:14:33",3975.000,"cc",28274.979,6.00,6,0.100,2538.000,0.200,605.000,0.300,350.000,0.500,381.000,1.000,101.000,5.000,0
"03/08/08","08:14:39",4180.000,"cc",28325.537,6.00,6,0.100,2732.000,0.200,615.000,0.300,354.000,0.500,372.000,1.000,107.000,5.000,0
"03/08/08","08:14:45",3899.000,"cc",28314.479,6.00,6,0.100,2573.000,0.200,561.000,0.300,327.000,0.500,359.000,1.000,79.000,5.000,0
"03/08/08","08:14:51",3908.000,"cc",28340.359,6.00,6,0.100,2535.000,0.200,550.000,0.300,358.000,0.500,359.000,1.000,106.000,5.000,0
"03/08/08","08:14:57",3787.000,"cc",28257.266,6.00,6,0.100,2538.000,0.200,558.000,0.300,329.000,0.500,291.000,1.000,71.000,5.000,0
"03/08/08","08:15:03",3921.000,"cc",28359.412,6.00,6,0.100,2557.000,0.200,598.000,0.300,328.000,0.500,359.000,1.000,79.000,5.000,0
"03/08/08","08:15:09",3996.000,"cc",28321.393,6.00,6,0.100,2527.000,0.200,632.000,0.300,361.000,0.500,384.000,1.000,92.000,5.000,0
"03/08/08","08:15:15",4108.000,"cc",28284.803,6.00,6,0.100,2692.000,0.200,582.000,0.300,351.000,0.500,389.000,1.000,94.000,5.000,0
"03/08/08","08:15:21",4208.000,"cc",28308.949,6.00,6,0.100,2743.000,0.200,620.000,0.300,360.000,0.500,397.000,1.000,88.000,5.000,0
"03/08/08","08:15:27",3820.000,"cc",28294.381,6.00,6,0.100,2465.000,0.200,545.000,0.300,369.000,0.500,345.000,1.000,96.000,5.000,0
"03/08/08","08:15:33",3823.000,"cc",28368.611,6.00,6,0.100,2409.000,0.200,605.000,0.300,369.000,0.500,372.000,1.000,68.000,5.000,0
"03/08/08","08:15:39",4001.000,"cc",28311.033,6.00,6,0.100,2562.000,0.200,624.000,0.300,363.000,0.500,364.000,1.000,88.000,5.000,0
"03/08/08","08:15:45",3826.000,"cc",28256.551,6.00,6,0.100,2393.000,0.200,583.000,0.300,352.000,0.500,382.000,1.000,116.000,5.000,0
"03/08/08","08:15:51",3919.000,"cc",28322.705,6.00,6,0.100,2533.000,0.200,579.000,0.300,338.000,0.500,368.000,1.000,101.000,5.000,0
"03/08/08","08:15:57",3742.000,"cc",28334.898,6.00,6,0.100,2397.000,0.200,563.000,0.300,341.000,0.500,358.000,1.000,83.000,5.000,0
"03/08/08","08:16:03",3806.000,"cc",28364.672,6.00,6,0.100,2461.000,0.200,553.000,0.300,353.000,0.500,357.000,1.000,82.000,5.000,0
"03/08/08","08:16:09",3769.000,"cc",28264.322,6.00,6,0.100,2439.000,0.200,567.000,0.300,357.000,0.500,313.000,1.000,93.000,5.000,0
"03/08/08","08:16:15",3818.000,"cc",28299.500,6.00,6,0.100,2434.000,0.200,594.000,0.300,344.000,0.500,352.000,1.000,94.000,5.000,0
"03/08/08","08:16:21",3871.000,"cc",28318.240,6.00,6,0.100,2502.000,0.200,530.000,0.300,349.000,0.500,393.000,1.000,97.000,5.000,0
"03/08/08","08:16:27",3883.000,"cc",28354.467,6.00,6,0.100,2381.000,0.200,645.000,0.300,382.000,0.500,369.000,1.000,106.000,5.000,0
"03/08/08","08:16:33",3622.000,"cc",28370.066,6.00,6,0.100,2326.000,0.200,506.000,0.300,359.000,0.500,342.000,1.000,89.000,5.000,0
"03/08/08","08:16:39",3866.000,"cc",28268.162,6.00,6,0.100,2382.000,0.200,577.000,0.300,414.000,0.500,393.000,1.000,100.000,5.000,0
"03/08/08","08:16:45",3874.000,"cc",28295.768,6.00,6,0.100,2416.000,0.200,593.000,0.300,382.000,0.500,385.000,1.000,98.000,5.000,0
"03/08/08","08:16:51",3826.000,"cc",28324.844,6.00,6,0.100,2428.000,0.200,594.000,0.300,357.000,0.500,361.000,1.000,86.000,5.000,0
"03/08/08","08:16:57",3699.000,"cc",28323.031,6.00,6,0.100,2281.000,0.200,572.000,0.300,354.000,0.500,393.000,1.000,99.000,5.000,0